This is the latest recevied weather packets stored in our database for station/object AD8BW. If no packets are shown the sender has not sent any weather packets the latest 10 day(s).
| Time | Temp. | Humidity | Pressure | Rain* | Wind** | Luminosity | Snow |
|---|---|---|---|---|---|---|---|
| 1777243390 | 15.56° C | 64% | 1019.7 hPa | 0 mm | - | 47 W/m² | - |
| 1777242792 | 15.56° C | 65% | 1019.7 hPa | 0 mm | - | 51 W/m² | - |
| 1777242190 | 15.56° C | 64% | 1019.7 hPa | 0 mm | - | 49 W/m² | - |
| 1777241595 | 15.56° C | 64% | 1019.7 hPa | 0 mm | - | 83 W/m² | - |
| 1777240997 | 15.56° C | 65% | 1019.7 hPa | 0 mm | - | 65 W/m² | - |
| 1777240389 | 16.11° C | 64% | 1019.7 hPa | 0 mm | - | 195 W/m² | - |
| 1777239788 | 16.11° C | 63% | 1019.8 hPa | 0 mm | - | 446 W/m² | - |
| 1777239187 | 16.67° C | 64% | 1019.8 hPa | 0 mm | - | 501 W/m² | - |
| 1777238590 | 16.11° C | 64% | 1019.7 hPa | 0 mm | - | 116 W/m² | - |
| 1777237987 | 16.11° C | 65% | 1019.6 hPa | 0 mm | - | 90 W/m² | - |
| 1777237390 | 16.67° C | 64% | 1019.5 hPa | 0 mm | - | 241 W/m² | - |
| 1777236790 | 16.67° C | 61% | 1019.5 hPa | 0 mm | - | 148 W/m² | - |
| 1777236185 | 16.67° C | 61% | 1019.5 hPa | 0 mm | - | 151 W/m² | - |
| 1777235586 | 16.67° C | 62% | 1019.5 hPa | 0 mm | - | 109 W/m² | - |
| 1777234986 | 17.78° C | 59% | 1019.4 hPa | 0 mm | - | 128 W/m² | - |
| 1777234385 | 17.78° C | 58% | 1019.5 hPa | 0 mm | - | 204 W/m² | - |
| 1777233786 | 17.78° C | 60% | 1019.5 hPa | 0 mm | - | 218 W/m² | - |
| 1777233188 | 17.78° C | 56% | 1019.6 hPa | 0 mm | - | 622 W/m² | - |
| 1777232590 | 17.78° C | 57% | 1019.6 hPa | 0 mm | - | 401 W/m² | - |
| 1777231987 | 17.22° C | 53% | 1019.7 hPa | 0 mm | - | 299 W/m² | - |
| 1777231385 | 17.22° C | 54% | 1019.7 hPa | 0 mm | - | 788 W/m² | - |
| 1777230787 | 17.22° C | 53% | 1019.7 hPa | 0 mm | - | 817 W/m² | - |
| 1777230183 | 17.78° C | 56% | 1019.7 hPa | 0 mm | - | 656 W/m² | - |
| 1777229584 | 17.22° C | 53% | 1019.6 hPa | 0 mm | - | 879 W/m² | - |
| 1777228984 | 17.22° C | 52% | 1019.7 hPa | 0 mm | - | 726 W/m² | - |
* Rain latest hour (hover to see other rain measurements)
** Current wind speed in m/s (hover to see current wind gust speed)